Location: Cactus School
(34.5700°N, 118.0931°W)
Time: 20:12:14
(UTC-08:00)

Vanguard 1 Rocket - Visible Passes

Search period start: 20 November 2017 00:00
Search period end: 30 November 2017 00:00
Orbit: 655 x 4222 km, 34.3° (Epoch: 18 November)

Date Brightness Start Highest point End Pass type
(mag) Time Alt. Az. Time Alt. Az. Time Alt. Az.
20 Nov 9.8 02:26:05 81° SE 02:26:05 81° SE 02:39:38 10° ESE visible
20 Nov 9.7 04:43:22 27° W 04:53:36 50° SW 05:03:48 10° SE visible
20 Nov 11.4 17:32:30 10° SE 17:36:52 11° ESE 17:41:34 10° ESE visible
20 Nov 10.6 19:45:13 10° SSW 20:03:44 44° SE 20:03:44 44° SE visible
20 Nov 11.0 22:11:11 10° WSW 23:01:41 - ENE 22:21:02 36° SW visible
21 Nov 10.4 01:18:58 46° E 01:18:58 46° E 01:27:57 10° E visible
21 Nov 9.7 03:36:16 55° W 03:41:16 68° SSW 03:53:45 10° SE visible
21 Nov 10.2 05:54:53 10° W 06:07:06 24° SW 06:14:56 10° S visible
21 Nov 10.9 18:35:49 10° S 18:50:59 30° SE 18:56:47 27° ESE visible
21 Nov 10.6 20:58:36 10° SW 21:14:05 55° SSW 21:14:05 55° SSW visible
21 Nov 11.2 23:28:00 10° WSW 00:11:54 21° E 00:15:33 10° E visible
22 Nov 9.9 02:29:12 78° SSE 02:29:12 78° SSE 02:42:53 10° ESE visible
22 Nov 9.9 04:46:30 26° W 04:56:03 42° SW 05:06:28 10° SSE visible
22 Nov 11.2 17:29:14 10° SSE 17:38:49 16° ESE 17:49:50 11° E visible
22 Nov 10.5 19:47:17 10° SSW 20:06:10 52° SE 20:07:08 51° SE visible
22 Nov 11.0 22:14:02 10° WSW 23:04:51 - E 22:24:26 39° WSW visible
23 Nov 10.5 01:22:09 46° ESE 01:22:09 46° ESE 01:31:14 10° ESE visible
23 Nov 9.8 03:39:27 52° WSW 03:43:56 60° SSW 03:56:43 10° SE visible
23 Nov 10.5 05:59:08 10° W 06:09:15 19° SW 06:16:25 10° SSW visible
23 Nov 10.7 18:37:19 10° SSW 18:52:54 36° SE 19:00:09 31° ESE visible
23 Nov 10.5 21:01:15 10° SW 21:17:27 62° SSW 21:17:27 62° SSW visible
23 Nov 11.2 23:31:03 10° W 00:15:08 21° E 00:18:49 10° E visible
24 Nov 9.9 02:32:26 72° SSE 02:32:26 72° SSE 02:46:01 10° ESE visible
24 Nov 10.2 04:49:45 25° W 04:58:19 35° SW 05:08:50 10° SSE visible
24 Nov 11.0 17:29:16 10° SSE 17:40:43 22° SE 17:53:09 13° E visible
24 Nov 10.3 19:49:41 10° SW 20:08:23 59° SE 20:10:27 58° SE visible
24 Nov 10.9 22:17:02 10° WSW 23:08:08 - E 22:27:45 40° WSW visible
25 Nov 10.5 01:25:26 45° ESE 01:25:26 45° ESE 01:34:28 10° ESE visible
25 Nov 10.0 03:42:45 48° WSW 03:46:24 52° SW 03:59:28 10° SE visible
25 Nov 10.7 06:04:41 10° W 06:11:20 13° WSW 06:16:41 10° SW visible
25 Nov 10.5 18:39:18 10° SSW 18:54:55 43° SE 19:03:26 35° E visible
25 Nov 10.4 21:04:06 10° WSW 21:20:43 67° SW 21:20:43 67° SW visible
25 Nov 11.2 23:34:09 10° W 00:18:27 21° E 00:22:03 10° E visible
26 Nov 10.0 02:35:46 65° S 02:35:46 65° S 02:49:01 10° SE visible
26 Nov 10.4 04:53:05 22° W 05:00:26 28° SW 05:10:49 10° S visible
26 Nov 10.8 17:30:22 10° S 17:42:38 28° SE 17:56:22 15° E visible
26 Nov 10.3 19:52:18 10° SW 20:10:45 66° SSE 20:13:39 63° ESE visible
26 Nov 10.9 22:20:07 10° W 23:11:29 - E 22:30:57 41° W visible
27 Nov 10.6 01:28:48 43° ESE 01:28:48 43° ESE 01:37:37 10° ESE visible
27 Nov 10.2 03:46:07 43° WSW 03:48:41 45° SW 04:01:59 10° SSE visible
27 Nov 10.4 18:41:35 10° SSW 18:57:04 51° SE 19:06:33 37° E visible
27 Nov 10.4 21:07:07 10° WSW 21:23:51 70° SW 21:23:51 70° SW visible
27 Nov 11.2 23:37:16 10° W 00:21:50 20° ESE 00:25:15 10° ESE visible
28 Nov 10.1 02:39:09 57° S 02:39:09 57° S 02:51:50 10° SE visible
28 Nov 10.7 04:56:28 19° WSW 05:02:27 22° SW 05:12:17 10° S visible
28 Nov 10.5 17:32:07 10° S 17:44:37 34° SE 17:59:26 17° E visible
28 Nov 10.2 19:55:08 10° SW 20:13:17 73° SSE 20:16:43 67° ESE visible
28 Nov 10.9 22:23:17 10° W 23:14:53 - E 22:34:00 41° W visible
29 Nov 10.6 01:32:11 40° SE 01:32:11 40° SE 01:40:37 10° ESE visible
29 Nov 10.4 03:49:31 37° SW 03:50:48 37° SW 04:04:13 10° SSE visible
29 Nov 10.2 18:44:10 10° SW 18:59:22 58° SE 19:09:33 39° E visible
29 Nov 10.3 21:10:14 10° WSW 21:26:50 71° WSW 21:26:50 71° WSW visible
